+ View the NASA Portal
+ Center for Near-Earth Object Studies
IMPORTANT:
The SSD Announcement email list is now available. Major changes are coming in the near future, including possible hostname and/or URL changes. To be notified of such changes, subscribe to this email list.
Please visit
this page
for more details.
Don't show this message again
JPL Small-Body Database Browser
Search:
[
help
]
226653 (2004 FX127)
Classification:
Main-belt Asteroid
SPK-ID:
2226653
[
Ephemeris
|
Orbit Diagram
|
Orbital Elements
|
Mission Design
|
Physical Parameters
|
Discovery Circumstances
]
[ show orbit diagram ]
Orbital Elements at Epoch 2458600.5 (2019-Apr-27.0) TDB
Reference:
JPL 16
(heliocentric ecliptic J2000)
Element
Value
Uncertainty (1-sigma)
Units
e
.1061068824286131
4.7439e-08
a
2.290691939837665
1.2169e-08
au
q
2.047633759497138
1.0681e-07
au
i
2.4196784574263
4.444e-06
deg
node
295.4197912332167
0.00011365
deg
peri
271.1199651409764
0.0001156
deg
M
112.60613383224
2.2191e-05
deg
t
p
2458204.397115071875
(2018-Mar-26.89711507)
7.7297e-05
TDB
period
1266.334556753058
3.47
1.0091e-05
2.763e-08
d
yr
n
.2842850635957193
2.2653e-09
deg/d
Q
2.533750120178192
1.346e-08
au
Orbit Determination Parameters
# obs. used (total)
379
data-arc span
8744 days (23.94 yr)
first obs. used
1995-11-23
last obs. used
2019-11-01
planetary ephem.
DE431
SB-pert. ephem.
SB431-N16
condition code
0
norm. resid. RMS
.59969
source
ORB
producer
Otto Matic
solution date
2019-Dec-04 17:28:06
Additional Information
Earth MOID
= 1.04502 au
Jupiter MOID
= 2.4364 au
T_jup
= 3.590
[ show covariance matrix ]
[
Ephemeris
|
Orbit Diagram
|
Orbital Elements
|
Mission Design
|
Physical Parameters
|
Discovery Circumstances
]
Physical Parameter Table
Parameter
Symbol
Value
Units
Sigma
Reference
Notes
absolute magnitude
H
17.0
n/a
MPO450051
diameter
diameter
2.158
km
0.323
urn:nasa:pds:neowise_diameters_albedos::2.0[mainbelt] (http://adsabs.harvard.edu/abs/2011ApJ...741...68M)
geometric albedo
albedo
0.060
0.031
urn:nasa:pds:neowise_diameters_albedos::2.0[mainbelt] (http://adsabs.harvard.edu/abs/2011ApJ...741...68M)
226653 (2004 FX127)
Discovered 2004-Mar-27 by CSS at Catalina
Reference:
20091202/Numbers.arc
Last Updated:
2009-12-04
[
Ephemeris
|
Orbit Diagram
|
Orbital Elements
|
Mission Design
|
Physical Parameters
|
Discovery Circumstances
]
2019-Dec-13 05:29 UT
(server date/time)
Site Manager:
Ryan S. Park
Webmaster
:
Alan B. Chamberlin